Regional Weather Roundup
Issued by NWS Kansas City/Pleasant Hill, MO

Home | Current Version | Previous Version | Graphics & Text | Print | Product List | Glossary Off
Versions: 1 2 3 4 5 6 7 8 9 10 11 12 13 14 15 16 17 18 19 20 21 22 23 24 25 26 27 28 29 30 31 32 33 34 35 36 37 38 39 40 41 42 43 44 45 46 47 48 49 50

000
ASUS43 KEAX 020910
RWREAX

WEATHER ROUNDUP FOR EASTERN KANSAS AND NORTHWEST MISSOURI
NATIONAL WEATHER SERVICE KANSAS CITY/PLEASANT HILL MO
400 AM CDT SUN AUG 02 2015

KSZ040-057-103>105-MOZ028-029-037-043-021000-
...KANSAS CITY METROPOLITAN AREA...

CITY           SKY/WX    TMP DP  RH WIND       PRES   REMARKS
K.C. INTL      CLEAR     69  66  90 S7        29.92F
K.C. DOWNTOWN  CLEAR     75  67  76 SW7       29.91F
LEES SUMMIT    PTCLDY    72  66  81 SW9       29.94F
OLATHE - IXD   PTCLDY    70  67  90 S6        29.95F
OLATHE - OJC   PTCLDY    71  67  87 S6        29.94F
LAWRENCE       PTCLDY    69  66  90 SE3       29.93F

$$

MOZ001>008-011>017-020>025-030>033-038>040-044>046-053-054-021000-
...NORTHERN AND CENTRAL MISSOURI...

CITY           SKY/WX    TMP DP  RH WIND       PRES   REMARKS
ST. JOSEPH     CLEAR     71  66  84 S6        29.91F
MOSBY            N/A     68  64  88 CALM      29.92F
WARRENSBURG    CLEAR     66  63  88 S5        29.93F
WHITEMAN AFB   CLEAR     66  64  94 S6        29.93F
CLINTON        CLEAR     66  66 100 CALM      29.95S
SEDALIA        CLEAR     67  63  87 S7        29.95F
WARSAW         NOT AVBL
CHILLICOTHE      N/A     68  63  84 SE3       29.93S
KIRKSVILLE     CLEAR     68  61  78 S7        29.93F

$$

MOZ041-047>049-056>058-063>065-088>090-097-021000-
...EASTERN AND SOUTHERN MISSOURI...

CITY           SKY/WX    TMP DP  RH WIND       PRES   REMARKS
ST. LOUIS INTL MOCLDY    79  70  74 SW5       29.96S
SPIRIT OF STL  MOCLDY    74  68  81 CALM      29.94F
COLUMBIA       CLEAR     68  66  93 SE7       29.95F
JEFFERSON CITY PTCLDY    68  66  93 SE5       29.95S
ROLLA          PTCLDY    69  65  86 S8        29.96F
OSAGE BEACH    CLEAR     68  64  88 SE3       29.96F
SPRINGFIELD    PTCLDY    70  65  84 S6        29.98F
BRANSON        CLEAR     72  64  78 CALM      30.01S
JOPLIN         PTCLDY    71  66  84 SE3       29.97F
WEST PLAINS    CLEAR     68  64  87 CALM      30.01F

$$

IAZ060-094-KSZ022-034>040-054-083-096-NEZ052-066-093-021000-
...KANSAS...SOUTHEAST NEBRASKA AND IOWA...

CITY           SKY/WX    TMP DP  RH WIND       PRES   REMARKS
TOPEKA         CLEAR     74  69  85 S3        29.92F
MANHATTAN      MOCLDY    75  70  84 SW7       29.91F
EMPORIA        PTCLDY    71  66  84 S7        29.94F
CHANUTE        PTCLDY    71  66  84 S7        29.95F
WICHITA        MOCLDY    73  68  84 S7        29.94F
OMAHA          CLOUDY    74  69  85 S10       29.85F
LINCOLN        PTCLDY    74  68  81 S7        29.88S
FALLS CITY     CLEAR     72  67  84 S10       29.89F
LAMONI           N/A     70  60  70 SW12      29.88F
DES MOINES     PTCLDY    73  62  68 SW10      29.85F

$$




USA.gov is the U.S. government's official web portal to all federal, state and local government web resources and services.